Weather History for Boscobel, WI

Change the Weather History Date:

Thursday, January 10, 2013

  Actual Average (KPDC) Record (KPDC)
Temperature  
Mean Temperature 36 °F -  
Max Temperature 57 °F 24 °F 53 °F (2012)
Min Temperature 16 °F 5 °F -26 °F (1988)
Degree Days  
Heating Degree Days 28    
Moisture  
Dew Point 25 °F    
Average Humidity 69    
Maximum Humidity 92    
Minimum Humidity 24    
Precipitation  
Precipitation 0.13 in - - ()
Sea Level Pressure  
Sea Level Pressure 30.19 in    
Wind  
Wind Speed 2 mph (East)    
Max Wind Speed 10 mph    
Max Gust Speed -    
Visibility 7 miles    
Events Rain    
Averages and records for this station are not official NWS values.
T = Trace of Precipitation, MM = Missing Value Source: NWS Daily Summary

Daily Weather History Graph

Daily Weather History Graph

Search for Another Location

Airport:

Trip Planner

Search our weather history database for the weather conditions in past years. The results will help you decide how hot, cold, wet, or windy it might be!

Date:

Astronomy

Jan. 10, 2013 Rise Set
Actual Time 7:33 AM CST 4:47 PM CST
Civil Twilight 7:01 AM CST 5:19 PM CST
Nautical Twilight 6:26 AM CST 5:54 PM CST
Astronomical Twilight 5:51 AM CST 6:29 PM CST
Moon 6:13 AM CST (1/10) 3:55 PM CST (1/10)
Length of Visible Light 10h 17m
Length of Day
9h 14m
Waning Crescent, 2% of the Moon is Illuminated
Jan 10
Waning Crescent
Jan 11
New
Jan 18
First Quarter
Jan 26
Full
Feb 3
Last Quarter

Hourly Weather History & Observations

Time (CST) Temp. Windchill Dew Point Humidity Pressure Visibility Wind Dir Wind Speed Gust Speed Precip Events Conditions
12:53 AM 18.0 °F - 15.1 °F 88% 30.48 in 8.0 mi Calm Calm - N/A   Clear
1:53 AM 17.1 °F - 15.1 °F 92% 30.50 in 4.0 mi Calm Calm - N/A   Clear
2:53 AM 17.1 °F - 14.0 °F 88% 30.49 in 10.0 mi Calm Calm - N/A   Clear
3:53 AM 16.0 °F - 12.9 °F 88% 30.47 in 9.0 mi Calm Calm - N/A   Clear
4:53 AM 19.0 °F 13.9 °F 16.0 °F 88% 30.46 in 10.0 mi East 3.5 mph - N/A   Clear
5:53 AM 19.0 °F - 17.1 °F 92% 30.45 in 10.0 mi Calm Calm - N/A   Clear
6:53 AM 18.0 °F - 15.1 °F 88% 30.45 in 10.0 mi Calm Calm - N/A   Clear
7:53 AM 18.0 °F - 15.1 °F 88% 30.45 in 9.0 mi Calm Calm - N/A   Clear
8:53 AM 19.9 °F 14.9 °F 18.0 °F 92% 30.43 in 10.0 mi ENE 3.5 mph - N/A   Clear
9:53 AM 28.9 °F - 21.9 °F 75% 30.40 in 10.0 mi Calm Calm - N/A   Clear
10:53 AM 39.0 °F 35.7 °F 23.0 °F 53% 30.34 in 10.0 mi NE 4.6 mph - N/A   Clear
11:53 AM 46.9 °F - 25.0 °F 42% 30.28 in 10.0 mi Calm Calm - N/A   Clear
12:53 PM 55.0 °F - 19.9 °F 25% 30.22 in 10.0 mi SE 4.6 mph - N/A   Clear
1:53 PM 57.0 °F - 19.9 °F 24% 30.18 in 10.0 mi Variable 3.5 mph - N/A   Clear
2:53 PM 54.0 °F - 21.0 °F 28% 30.16 in 10.0 mi East 8.1 mph - N/A   Partly Cloudy
3:53 PM 54.0 °F - 23.0 °F 30% 30.12 in 10.0 mi East 10.4 mph - 0.00 in Rain Light Rain
4:53 PM 48.0 °F - 30.0 °F 50% 30.08 in 9.0 mi ENE 8.1 mph - 0.03 in Rain Light Rain
5:40 PM 41.0 °F 38.0 °F 30.2 °F 65% 30.03 in 9.0 mi ENE 4.6 mph - 0.01 in   Overcast
5:53 PM 43.0 °F 39.5 °F 32.0 °F 65% 30.06 in 5.0 mi ENE 5.8 mph - 0.01 in Rain Light Rain
6:53 PM 48.9 °F - 34.0 °F 56% 30.03 in 5.0 mi ESE 4.6 mph - 0.01 in   Haze
6:59 PM 50.0 °F - 33.8 °F 54% 29.99 in 2.5 mi East 5.8 mph - 0.00 in Rain Light Rain
7:34 PM 42.8 °F - 35.6 °F 76% 29.97 in 2.5 mi Calm Calm - 0.03 in Rain Light Rain
7:43 PM 42.8 °F 41.1 °F 35.6 °F 76% 29.96 in 3.0 mi NE 3.5 mph - 0.03 in Rain Light Rain
7:53 PM 44.1 °F 42.5 °F 35.1 °F 71% 29.98 in 4.0 mi ENE 3.5 mph - 0.03 in Rain Light Rain
8:53 PM 41.0 °F 39.0 °F 35.1 °F 79% 29.95 in 5.0 mi Variable 3.5 mph - 0.00 in   Haze
9:53 PM 39.9 °F - 35.1 °F 83% 29.92 in 3.0 mi Calm Calm - 0.00 in   Haze
10:00 PM 39.2 °F - 35.6 °F 87% 29.90 in 1.8 mi Calm Calm - 0.01 in Rain Light Rain
10:24 PM 41.0 °F 38.0 °F 35.6 °F 81% 29.88 in 3.0 mi East 4.6 mph - 0.02 in Rain Light Rain
10:53 PM 45.0 °F 41.8 °F 35.1 °F 68% 29.86 in 5.0 mi Variable 5.8 mph - 0.05 in Rain Light Rain